Location: Les Salelles
(44.4192°N, 4.1044°E)
Time: 16:41:18
(UTC+00:00)

Meteor 2-10 Rocket - Pass Details

Date: 20 January 2021
Orbit: 733 x 885 km, 81.2° (Epoch: 27 February)

Event Time Altitude Azimuth Distance (km) Brightness Sun altitude
Rises 18:26:17 0° 345° (NNW) 3,408 6.9 -19.3°
Reaches altitude 10° 18:28:48 10° 340° (NNW) 2,446 6.2 -19.8°
Maximum altitude 18:34:08 52° 266° (W) 998 4.4 -20.7°
Drops below altitude 10° 18:39:13 10° 191° (S) 2,330 6.2 -21.6°
Sets 18:41:34 0° 186° (S) 3,231 6.9 -22.0°
